sat.trackr.live / text

‹ back to catalog

STARLINK-36511

NORAD 67451 · 2026-008G

PAYLOAD ACTIVE UNKNOWN

§ Identity

Operator
Country
US
Launch date
2026-01-14
Launch site
AFETR
Launch vehicle
Mass (kg)
RCS (m²)

Purposes: comms

External: N2YO · Heavens-Above · Gunter

§ Orbital elements

Epoch: 2026-09-19T22:07:00.710400Z

Period
94.27 min
Inclination
43.0025°
Eccentricity
0.0000501
Mean motion
15.27600896 rev/d
Perigee alt
482.6 km
Apogee alt
483.3 km
Semi-major
6,861.1 km
B*
3.5516e-4
RAAN
188.6453°
Arg perigee
261.8201°
Mean anomaly
98.2594°
Rev number
3,927

§ Raw data

STARLINK-365111 67451U 26008G   26262.92153600  .00009530  00000+0  35516-3 0  99922 67451  43.0025 188.6453 0000501 261.8201  98.2594 15.27600896 39272

JSON: /api/v1/satellites/67451 · /tle

For live sub-satellite position, see the globe view (requires WebGL).

§ Visibility from observer

Set your observer location to see the next 7 days of passes ≥ 10°. The values pass through the URL so the page stays shareable.

No JS? Fill the form by hand. The geolocation button needs JavaScript.